www.pogodaiklimat.ru
ПОГОДА в Сардобе

Архив погоды в Сардобе (Сырдарьинская область, Узбекистан)

Время
и дата
22:10 27.05
22:20 27.05
22:30 27.05
22:50 27.05
23:00 27.05
23:10 27.05
23:20 27.05
23:30 27.05
23:50 27.05
00:00 28.05
00:10 28.05
00:20 28.05
00:40 28.05
01:10 28.05
01:20 28.05
01:40 28.05
01:50 28.05
02:00 28.05
02:20 28.05
02:30 28.05
02:40 28.05
02:50 28.05
03:00 28.05
03:10 28.05
03:30 28.05
03:40 28.05
04:00 28.05
04:10 28.05
04:20 28.05
04:30 28.05
04:50 28.05
05:10 28.05
05:20 28.05
05:30 28.05
05:50 28.05
06:00 28.05
06:10 28.05
06:30 28.05
06:50 28.05
07:00 28.05
07:20 28.05
07:40 28.05
07:50 28.05
08:00 28.05
08:10 28.05
08:20 28.05
08:40 28.05
09:00 28.05
09:10 28.05
09:30 28.05
09:40 28.05
09:50 28.05
10:10 28.05
10:20 28.05
10:30 28.05
10:40 28.05
10:50 28.05
11:00 28.05
11:10 28.05
11:20 28.05
11:30 28.05
11:40 28.05
11:50 28.05
12:00 28.05
12:20 28.05
12:30 28.05
13:10 28.05
13:20 28.05
13:30 28.05
13:50 28.05
14:00 28.05
14:30 28.05
14:50 28.05
15:00 28.05
15:10 28.05
15:20 28.05
15:30 28.05
15:50 28.05
16:10 28.05
16:30 28.05
16:50 28.05
17:10 28.05
17:20 28.05
17:50 28.05
18:00 28.05
18:20 28.05
18:30 28.05
18:50 28.05
19:00 28.05
19:10 28.05
19:20 28.05
19:40 28.05
19:50 28.05
20:10 28.05
20:20 28.05
20:30 28.05
20:50 28.05
21:00 28.05
21:10 28.05
21:20 28.05
21:30 28.05
21:40 28.05
22:00 28.05
22:10 28.05
22:30 28.05
22:40 28.05
22:50 28.05
23:10 28.05
23:20 28.05
23:30 28.05
23:40 28.05
00:00 29.05
00:10 29.05
00:30 29.05
00:40 29.05
01:10 29.05
01:20 29.05
01:30 29.05
01:50 29.05
02:00 29.05
02:20 29.05
02:30 29.05
02:50 29.05
03:00 29.05
03:20 29.05
03:30 29.05
03:40 29.05
04:00 29.05
04:10 29.05
04:20 29.05
04:30 29.05
04:40 29.05
04:50 29.05
05:00 29.05
05:10 29.05
05:20 29.05
05:40 29.05
06:00 29.05
06:10 29.05
06:30 29.05
06:50 29.05
07:10 29.05
07:20 29.05
07:30 29.05
Ветер
(напр.,м/с)
Видимость Явления Солнечная радиация
(Вт/м2)
Т
(С)
Тd
(С)
f
(%)
Тe
(С)
Тes
(С)
Комфортность P
(гПа)
Po
(гПа)
Тmin
(С)
Tmax
(С)
R
(мм)
СЗ 1.5
{1.7}
+19.1 +12.9 67 +21 +21 комфорт 1011.5 973.1 +19.3 +19.1
СЗ 1.5
{1.7}
+19.0 +12.5 66 +21 +21 комфорт 1011.5 973.1 +19.1 +19.0
СЗ 1.4
{1.7}
+19.0 +12.3 65 +21 +21 комфорт 1011.5 973.1 +19.0 +19.0
З 1.6
{2.0}
+18.8 +13.8 73 +20 +20 1011.4 973.0 +19.0 +18.8
СЗ 1.5
{2.2}
+18.5 +12.1 66 +20 +20 1011.4 973.0 +18.8 +18.5
З 1.3
{2.0}
+18.2 +13.3 73 +19 +19 1011.4 973.0 +18.5 +18.2
З 1.3
{1.6}
+18.0 +13.2 74 +19 +19 1011.5 973.1 +18.2 +18.0
З 1.1
{1.3}
+17.8 +12.8 73 +19 +19 1011.5 973.1 +18.0 +17.8
ЮЗ 1.6
{2.6}
+18.0 +12.6 71 +19 +19 1011.6 973.2 +18.0 +17.9
Ю 1.5
{2.4}
+18.1 +16.0 87 +19 +19 1011.6 973.2 +18.1 +18.0
Ю 0.8
{1.8}
+18.3 +16.0 86 +20 +20 1011.6 973.2 +18.4 +18.1
ЮЗ 0.9
{1.6}
+18.4 +14.3 77 +20 +20 1011.6 973.2 +18.4 +18.3
ЮЗ 1.0
{1.3}
+18.2 +15.3 83 +20 +20 1011.5 973.1 +18.3 +18.2
ЮЗ 1.4
{1.7}
+17.4 +14.9 85 +18 +18 1011.3 972.9 +17.6 +17.4
ЮЗ 1.4
{1.8}
+17.2 +15.5 90 +18 +18 1011.2 972.8 +17.4 +17.2
ЮЗ 1.5
{2.0}
+16.5 +16.5 100 +17 +17 1011.1 972.8 +16.9 +16.5
ЮЗ 1.5
{2.1}
+16.3 +16.3 100 +17 +17 1011.1 972.8 +16.5 +16.3
З 1.6
{2.3}
+16.2 +16.2 100 +16 +16 1011.1 972.8 +16.3 +16.2
ЮЗ 1.6
{2.6}
+15.9 +15.9 100 +16 +16 1011.0 972.7 +16.0 +15.8
ЮЗ 1.5
{2.6}
+15.7 +15.7 100 +16 +16 1011.0 972.7 +15.9 +15.8
ЮЗ 1.6
{2.3}
+15.5 +15.5 100 +16 +16 1011.0 972.7 +15.7 +15.5
ЮЗ 1.4
{2.3}
+15.4 +15.4 100 +16 +16 1011.0 972.6 +15.5 +15.4
З 1.5
{2.8}
+15.2 +15.2 100 +15 +15 1011.1 972.7 +15.4 +15.2
ЮЗ 1.4
{2.9}
+15.0 +15.0 100 +15 +15 1011.1 972.7 +15.2 +15.0
ЮЗ 1.6
{3.0}
+14.8 +14.8 100 +15 +15 1011.1 972.7 +15.0 +14.8
ЮЗ 1.5
{3.3}
+14.7 +14.7 100 +15 +15 1011.1 972.7 +14.8 +14.7
ЮЗ 1.6
{3.4}
+14.6 +14.6 100 +14 +14 1011.2 972.8 +14.7 +14.6
ЮЗ 1.8
{3.7}
+14.6 +14.6 100 +14 +14 1011.4 973.0 +14.7 +14.6
ЮЗ 1.5
{3.4}
+14.5 +14.5 100 +14 +14 1011.4 973.0 +14.6 +14.5
ЮЗ 1.5
{3.2}
+14.3 +14.3 100 +14 +14 1011.6 973.2 +14.5 +14.3
ЮЗ 1.3
{2.6}
+14.0 +14.0 100 +14 +14 1011.7 973.3 +14.1 +14.0
ЮЗ 1.3
{2.5}
+13.7 +13.7 100 +13 +13 1011.8 973.4 +13.9 +13.7
ЮЗ 1.3
{2.4}
+13.7 +13.7 100 +13 +13 1011.9 973.5 +13.7 +13.7
ЮЗ 1.2
{2.0}
+13.6 +13.6 100 +13 +13 1011.9 973.5 +13.7 +13.6
ЮЗ 1.1
{2.0}
+13.9 +13.9 100 +14 +14 1012.2 973.8 +13.9 +13.7
ЮЗ 0.9
{1.7}
+14.3 +14.3 100 +15 +15 1012.3 973.9 +14.3 +13.9
ЮЗ 1.0
{2.0}
+14.8 +14.8 100 +15 +15 1012.3 973.9 +14.8 +14.3
З 1.0
{2.3}
+16.0 +16.0 100 +17 +17 1012.6 974.1 +16.0 +15.4
З 1.0
{2.4}
+17.3 +17.3 100 +18 +18 1012.8 974.4 +17.3 +16.7
З 0.9
{1.9}
+17.9 +17.9 100 +19 +19 1012.8 974.4 +17.9 +17.3
З 1.0
{2.3}
+19.1 +19.1 100 +22 +22 комфорт 1012.8 974.4 +19.1 +18.5
З 1.4
{2.9}
+20.5 +17.6 84 +25 +25 комфорт 1013.0 974.5 +20.4 +19.8
З 1.2
{2.4}
+21.0 +15.8 72 +25 +25 комфорт 1013.0 974.5 +21.0 +20.4
З 0.7
{1.9}
+21.4 +16.6 74 +25 +25 комфорт 1013.0 974.6 +21.5 +21.0
З 0.7
{2.0}
+22.1 +16.0 69 +26 +26 душно 1013.0 974.6 +22.0 +21.3
З 1.0
{2.9}
+23.1 +14.9 60 +27 +27 душно 1013.1 974.7 +23.1 +22.1
З 1.4
{2.9}
+24.0 +14.9 57 +27 +27 жарко 1013.2 974.8 +24.0 +23.4
З 1.7
{3.8}
+25.1 +15.1 54 +28 +28 жарко 1013.4 974.9 +25.0 +24.4
З 1.7
{4.2}
+25.5 +14.6 51 +28 +28 жарко 1013.4 974.9 +25.5 +25.1
СЗ 2.2
{4.8}
+25.8 +16.2 55 +29 +29 душно 1013.4 974.9 +25.8 +25.6
СЗ 2.0
{3.8}
+26.0 +14.0 47 +28 +28 жарко 1013.4 974.9 +26.0 +25.8
СЗ 1.7
{3.7}
+26.1 +11.5 40 +27 +27 жарко 1013.3 974.8 +26.3 +26.0
СЗ 2.1
{4.4}
+26.8 +13.3 43 +29 +29 жарко 1013.3 974.9 +26.9 +26.5
СЗ 1.7
{3.9}
+27.5 +12.4 39 +29 +29 жарко 1013.2 974.8 +27.5 +26.8
СЗ 2.3
{4.6}
+27.7 +7.6 28 +27 +27 жарко 1013.3 974.9 +27.7 +27.4
СЗ 2.4
{5.6}
+28.1 +7.4 27 +27 +27 жарко 1013.4 975.0 +28.1 +27.5
СЗ 2.8
{5.5}
+28.2 +8.1 28 +28 +28 жарко 1013.4 975.0 +28.3 +28.0
С 3.0
{6.3}
+28.2 +8.1 28 +28 +28 жарко 1013.5 975.1 +28.3 +28.1
СЗ 2.9
{5.8}
+28.4 +7.3 26 +28 +28 жарко 1013.5 975.1 +28.5 +28.1
СЗ 2.2
{4.4}
+29.0 +7.3 26 +28 +28 жарко 1013.5 975.1 +29.0 +28.4
СЗ 2.7
{5.5}
+28.7 +8.0 27 +28 +28 жарко 1013.5 975.1 +29.0 +28.7
С 2.9
{6.0}
+28.8 +5.9 24 +28 +28 жарко 1013.5 975.1 +29.6 +28.7
С 2.7
{5.3}
+29.0 +7.4 26 +28 +28 жарко 1013.4 975.0 +28.9 +28.6
СЗ 2.5
{5.1}
+29.6 +6.8 24 +28 +28 жарко 1013.4 975.0 +29.6 +29.0
С 3.0
{5.9}
+29.5 +4.9 21 +28 +28 жарко 1013.3 974.9 +30.2 +29.2
СЗ 2.9
{6.7}
+30.3 +6.0 22 +29 +29 жарко 1013.4 974.9 +30.3 +29.3
СЗ 2.9
{6.9}
+29.6 +4.9 21 +28 +28 жарко 1013.1 974.7 +29.5 +29.0
СЗ 2.9
{6.2}
+30.1 +3.5 18 +28 +28 жарко 1013.2 974.8 +30.0 +29.6
С 2.4
{6.1}
+29.9 +3.6 19 +28 +28 жарко 1013.2 974.8 +30.1 +29.7
С 3.4
{7.0}
+29.8 +7.0 24 +29 +29 жарко 1013.2 974.8 +30.4 +29.7
СЗ 3.4
{7.3}
+30.0 +6.9 23 +29 +29 жарко 1013.2 974.8 +30.1 +29.8
СЗ 2.5
{4.9}
+30.5 +7.6 24 +29 +29 жарко 1013.2 974.7 +30.9 +30.2
С 3.4
{6.4}
+30.3 +5.2 21 +29 +29 жарко 1013.2 974.7 +30.7 +30.2
С 3.2
{7.2}
+30.3 +5.8 21 +29 +29 жарко 1013.2 974.7 +30.6 +30.1
СЗ 2.9
{6.7}
+30.6 +7.2 23 +29 +29 жарко 1013.2 974.7 +30.6 +30.2
СЗ 2.9
{6.2}
+30.9 +10.0 27 +30 +30 жарко 1013.1 974.6 +30.8 +30.3
СЗ 3.6
{7.7}
+30.5 +5.6 21 +29 +29 жарко 1013.1 974.6 +31.0 +30.5
С 3.2
{6.6}
+30.1 +6.3 22 +29 +29 жарко 1013.0 974.6 +30.2 +30.0
СЗ 3.6
{6.8}
+29.9 +6.2 22 +28 +28 жарко 1013.1 974.7 +30.0 +29.8
СЗ 3.3
{6.3}
+29.8 +5.3 21 +28 +28 жарко 1013.1 974.7 +29.8 +29.6
С 3.4
{6.5}
+29.6 +5.0 21 +28 +28 жарко 1013.0 974.6 +29.6 +29.3
СЗ 3.0
{6.3}
+29.6 +5.6 22 +28 +28 жарко 1013.1 974.7 +29.6 +29.4
СЗ 2.8
{5.3}
+29.3 +6.2 23 +28 +28 жарко 1013.1 974.7 +29.7 +29.3
СЗ 2.7
{5.7}
+29.0 +5.1 22 +28 +28 жарко 1013.1 974.7 +29.2 +29.0
СЗ 2.3
{5.0}
+28.7 +7.0 26 +28 +28 жарко 1013.1 974.7 +29.1 +28.7
СЗ 2.5
{5.1}
+27.9 +4.8 23 +27 +27 жарко 1013.1 974.7 +28.5 +27.9
СЗ 2.7
{5.1}
+27.5 +5.0 24 +26 +26 жарко 1013.2 974.8 +27.9 +27.5
С 2.2
{4.1}
+26.9 +6.4 27 +26 +26 жарко 1013.3 974.9 +27.3 +26.9
С 2.2
{3.7}
+26.5 +6.6 28 +26 +26 жарко 1013.3 974.8 +26.9 +26.5
С 2.2
{4.4}
+26.1 +7.0 30 +26 +26 жарко 1013.4 974.9 +26.5 +26.1
С 2.2
{4.3}
+25.7 +7.8 32 +26 +26 жарко 1013.5 975.0 +26.1 +25.8
С 2.1
{3.9}
+24.6 +7.6 34 +25 +25 комфорт 1013.6 975.1 +25.2 +24.6
С 2.1
{3.8}
+24.1 +8.3 36 +25 +25 комфорт 1013.5 975.1 +24.6 +24.2
С 1.8
{3.3}
+23.2 +8.3 39 +24 +24 комфорт 1013.5 975.1 +23.6 +23.2
С 1.4
{2.5}
+22.9 +7.9 38 +24 +24 комфорт 1013.6 975.2 +23.2 +23.0
С 1.5
{2.7}
+22.8 +7.6 38 +24 +24 комфорт 1013.6 975.2 +22.9 +22.8
С 2.0
{2.6}
+22.0 +7.3 39 +23 +23 комфорт 1013.7 975.3 +22.1 +22.0
С 1.4
{2.4}
+21.8 +7.8 41 +23 +23 комфорт 1013.7 975.3 +22.0 +21.8
С 2.1
{2.8}
+21.8 +8.0 41 +23 +23 комфорт 1013.8 975.3 +21.8 +21.8
С 2.1
{2.8}
+22.0 +9.1 44 +23 +23 комфорт 1013.9 975.5 +22.1 +21.8
С 1.1
{1.7}
+20.9 +10.6 52 +24 +24 комфорт 1013.9 975.4 +22.0 +20.9
С 0.6
{1.1}
+20.3 +10.5 53 +23 +23 комфорт 1013.9 975.4 +20.9 +20.3
С 1.1
{1.7}
+19.7 +9.8 53 +22 +22 комфорт 1013.9 975.4 +19.9 +19.7
С 1.2
{2.2}
+19.5 +9.9 54 +22 +22 комфорт 1013.9 975.4 +19.7 +19.5
С 3.6
{6.7}
+20.2 +9.4 50 +22 +22 комфорт 1014.0 975.5 +20.5 +20.2
С 3.4
{5.0}
+19.9 +9.3 50 +21 +21 комфорт 1013.9 975.4 +20.2 +19.9
С 3.3
{5.0}
+19.6 +9.3 52 +21 +21 комфорт 1013.9 975.4 +19.9 +19.6
С 2.6
{3.8}
+18.9 +9.7 55 +20 +20 1013.8 975.4 +19.3 +18.9
С 2.5
{3.4}
+18.6 +9.2 54 +19 +19 1013.8 975.4 +18.9 +18.6
С 1.9
{3.6}
+18.5 +9.3 55 +19 +19 1013.9 975.5 +18.6 +18.5
С 1.7
{2.9}
+18.3 +9.7 57 +19 +19 1013.9 975.5 +18.5 +18.3
С 2.2
{4.2}
+18.2 +9.7 57 +19 +19 1013.8 975.4 +18.4 +18.2
С 1.6
{2.7}
+17.8 +9.8 59 +19 +19 1013.8 975.4 +18.2 +17.8
С 1.8
{3.8}
+17.6 +10.0 61 +18 +18 1013.8 975.4 +17.7 +17.6
С 1.4
{3.0}
+17.4 +10.4 63 +18 +18 1013.8 975.4 +17.6 +17.4
З 1.1
{1.7}
+15.8 +11.2 74 +16 +16 1013.9 975.4 +16.4 +15.8
ЮЗ 1.5
{2.0}
+15.1 +11.9 81 +15 +15 1013.9 975.4 +15.8 +15.1
Ю 1.6
{2.5}
+14.8 +12.9 88 +15 +15 1014.0 975.5 +15.1 +14.8
Ю 1.5
{2.5}
+14.8 +11.3 79 +15 +15 1014.0 975.5 +14.9 +14.8
ЮЗ 1.0
{2.4}
+14.9 +11.4 80 +15 +15 1014.0 975.5 +14.9 +14.8
ЮЗ 1.1
{2.0}
+14.8 +11.4 81 +15 +15 1014.1 975.6 +14.7 +14.7
ЮЗ 1.2
{2.0}
+14.8 +11.4 80 +15 +15 1014.1 975.6 +14.8 +14.7
ЮЗ 1.1
{2.3}
+14.7 +11.7 82 +15 +15 1014.2 975.7 +14.8 +14.7
ЮЗ 1.1
{2.7}
+14.6 +12.4 87 +15 +15 1014.2 975.7 +14.7 +14.6
ЮЗ 1.3
{2.5}
+14.3 +14.3 100 +14 +14 1014.2 975.7 +14.6 +14.3
ЮЗ 1.4
{3.2}
+14.2 +14.2 100 +14 +14 1014.1 975.6 +14.3 +14.2
ЮЗ 1.6
{3.4}
+14.1 +14.1 100 +14 +14 1014.1 975.6 +14.2 +14.1
ЮЗ 1.8
{3.4}
+13.7 +13.7 100 +13 +13 1014.1 975.7 +13.9 +13.7
ЮЗ 1.6
{3.0}
+13.6 +13.6 100 +13 +13 1014.1 975.7 +13.7 +13.6
З 1.8
{3.8}
+13.6 +13.6 100 +13 +13 1014.1 975.7 +13.6 +13.5
З 1.8
{3.6}
+13.6 +13.6 100 +13 +13 1014.1 975.7 +13.6 +13.5
ЮЗ 1.4
{3.0}
+13.5 +13.2 98 +13 +13 1014.1 975.7 +13.6 +13.5
З 1.6
{3.1}
+13.4 +12.5 94 +13 +13 1014.1 975.7 +13.5 +13.4
ЮЗ 1.4
{2.9}
+13.3 +12.4 94 +13 +13 1014.1 975.7 +13.4 +13.3
ЮЗ 1.6
{2.8}
+13.2 +12.0 92 +13 +13 1014.1 975.7 +13.3 +13.2
ЮЗ 1.5
{2.8}
+13.1 +12.3 95 +13 +13 1014.2 975.8 +13.2 +13.1
З 1.7
{3.1}
+13.4 +12.0 91 +13 +13 1014.3 975.9 +13.4 +13.1
З 1.4
{2.6}
+14.5 +9.9 74 +15 +15 1014.5 976.0 +14.5 +13.9
З 1.3
{3.0}
+15.2 +9.3 68 +16 +16 1014.4 975.9 +15.2 +14.5
З 1.4
{3.0}
+16.7 +8.4 58 +17 +17 1014.5 976.0 +16.7 +16.0
З 1.6
{3.6}
+17.9 +7.0 49 +19 +19 1014.4 976.0 +17.9 +17.3
З 1.9
{4.1}
+19.2 +6.0 42 +20 +20 1014.4 975.9 +19.2 +18.6
СЗ 2.3
{4.1}
+19.7 +6.0 41 +21 +21 комфорт 1014.4 975.9 +19.7 +19.2
СЗ 2.2
{4.6}
+20.2 +5.7 39 +22 +22 комфорт 1014.4 975.9 +20.1 +19.7
Местоположение метеостанции Сардоба (Сырдарьинская область, Узбекистан): широта 40.38 долгота 68.45 высота над уровнем моря 0 м.
В архиве по умолчанию представлена погода в Сардобе за последние 1-2 суток. Обновление информации о фактической погоде в базе происходит ежечасно! Архивные данные за месяц целиком и за предыдущие месяцы Вы можете получить, выбрав интересующий диапазон дат из раскрывающегося списка и нажав кнопку "Ввод!".
*Определитесь, кто Вы:
Внимание! Время в таблицах - местное (без учета летнего времени). Для получения всемирного времени необходимо вычесть поправку, которая равна 5 ч.
Смотрите также архив погоды на ближайших метеорологических станциях:
Партнеры нашего сайта:      
Пояснения к столбцам:
  • Ветер - указаны скорость ветра в м/с - средняя за 10 мин, порывы в срок и между сроками (в фигурных скобках) и направление, откуда дует ветер: С - северный,
  • СВ - северо-восточный, В - восточный, ЮВ - юго-восточный, Ю - южный, ЮЗ - юго-западный, З - западный, СЗ - северо-западный.
  • Видимость - горизонтальная дальность видимости в метрах или километрах. При видимости от 1 до 10 км при отсутствии осадков обычно наблюдается дымка, при ухудшении видимости до 1 км и менее - туман. В сухую погоду видимость может ухудшаться дымом, пылью или мглою.
  • Явления - указаны атмосферные явления, наблюдавшиеся в срок или в последний час перед сроком.
  • Солнечная радиация - мощность потока солнечного излучения на поверхность земли и предметов в Вт/м2.
  • T - Температура воздуха - температура, измеренная на высоте 2 м над землей.
  • Td - Температура точки росы - температура, при понижении до которой содержащийся в воздухе водяной пар достигнет насыщения.
  • f - Относительная влажность воздуха - влажноcть воздуха, измеренная на высоте 2 м над землей.
  • Te - Эффективная температура - температура, которую ощущает одетый по сезону человек в тени. Характеристика душности погоды. При расчете учитывается влияние влажности воздуха и скорости ветра на теплоощущения человека.
  • Tes - Эффективная температура на солнце - температура, которую ощущает человек, с поправкой на солнечный нагрев. Характеристика знойности погоды. Зависит от высоты солнца над горизонтом, облачности и скорости ветра. Ночью, в пасмурную погоду, а также при ветре 12 м/с и более поправка равна нулю.
  • P - Атмосферное давление - приведенное к уровню моря атмосферное давление.
  • Po - Атмосферное давление - измеренное на уровне метеостанции атмосферное давление.
  • Tmin - Минимальная температура - минимум температуры воздуха на высоте 2 м над землей.
  • Tmax - Максимальная температура - максимум температуры воздуха на высоте 2 м над землей.
  • R - Количество осадков - Количество выпавших осадков за период времени, мм. При наведении курсора мыши на число - период времени, за который выпало указанное количество осадков.